Location: Bush Observatory
(40.2653°N, 94.3194°W)
Time: 14:19:20
(UTC-06:00)

N. Korean satellite - Visible Passes

Search period start: 19 November 2018 00:00
Search period end: 29 November 2018 00:00
Orbit: 457 x 511 km, 97.2° (Epoch: 18 November)

Date Brightness Start Highest point End Pass type
(mag) Time Alt. Az. Time Alt. Az. Time Alt. Az.
19 Nov 9.8 05:44:22 10° NE 05:46:28 15° E 05:48:35 10° SE visible
19 Nov 6.6 17:51:30 10° S 17:55:06 85° WSW 17:58:41 10° NNW visible
20 Nov 6.9 17:27:14 10° SE 17:30:39 43° ENE 17:34:02 10° N visible
20 Nov 10.2 19:03:34 10° WSW 19:04:18 10° W 19:05:02 10° W visible
21 Nov 7.1 06:27:39 10° NNE 06:31:03 61° E 06:34:27 10° S visible
21 Nov 9.3 18:36:51 10° SW 18:39:38 21° W 18:42:24 10° NW visible
22 Nov 8.9 06:03:29 10° NE 06:06:29 27° E 06:09:28 10° SSE visible
22 Nov 7.8 18:11:36 10° S 18:15:02 43° W 18:18:25 10° NNW visible
23 Nov 9.9 05:40:01 10° ENE 05:41:49 14° E 05:43:38 10° SE visible
23 Nov 6.4 17:46:56 10° SSE 17:50:30 83° ENE 17:54:02 10° N visible
24 Nov 7.0 17:22:45 10° SE 17:26:03 37° ENE 17:29:19 10° N visible
24 Nov 10.1 18:58:18 10° WSW 18:59:39 12° W 19:00:59 10° WNW visible
25 Nov 7.4 06:23:01 10° NNE 06:26:24 53° E 06:29:48 10° S visible
25 Nov 9.1 18:32:04 10° SSW 18:34:59 23° W 18:37:51 10° NW visible
26 Nov 9.1 05:58:55 10° NE 06:01:48 24° E 06:04:41 10° SSE visible
26 Nov 7.5 18:06:56 10° S 18:10:22 50° W 18:13:48 10° NNW visible
27 Nov 10.0 05:35:42 10° ENE 05:37:07 12° E 05:38:32 10° ESE visible
27 Nov 6.4 17:42:21 10° SSE 17:45:51 72° ENE 17:49:20 10° N visible
28 Nov 6.4 06:42:47 10° N 06:46:15 78° WNW 06:49:43 10° SSW visible
28 Nov 7.2 17:18:14 10° SE 17:21:24 32° ENE 17:24:32 10° N visible
28 Nov 9.9 18:53:12 10° WSW 18:54:57 13° W 18:56:40 10° WNW visible
